TimePDT,TemperatureF,Dew PointF,Humidity,Sea Level PressureIn,VisibilityMPH,Wind Direction,Wind SpeedMPH,Gust SpeedMPH,PrecipitationIn,Events,Conditions,WindDirDegrees,DateUTC
12:15 AM,42.8,35.6,76,30.01,10.0,SSW,9.2,-,N/A,,Overcast,200,2012-10-28 07:15:00
12:35 AM,42.8,35.6,76,30.00,10.0,South,9.2,-,N/A,,Overcast,190,2012-10-28 07:35:00
12:55 AM,42.8,37.4,81,30.00,10.0,SSW,9.2,-,N/A,,Overcast,200,2012-10-28 07:55:00
1:15 AM,42.8,37.4,81,30.00,10.0,SSW,10.4,-,N/A,,Overcast,200,2012-10-28 08:15:00
1:35 AM,42.8,35.6,76,30.00,8.0,South,13.8,20.7,N/A,,Overcast,180,2012-10-28 08:35:00
1:55 AM,42.8,37.4,81,30.00,10.0,South,11.5,-,N/A,,Overcast,170,2012-10-28 08:55:00
2:15 AM,44.6,37.4,76,30.00,10.0,South,13.8,21.9,N/A,,Overcast,190,2012-10-28 09:15:00
2:35 AM,44.6,37.4,76,30.00,10.0,South,9.2,-,N/A,,Overcast,170,2012-10-28 09:35:00
2:55 AM,44.6,37.4,76,30.00,10.0,South,16.1,21.9,N/A,,Overcast,170,2012-10-28 09:55:00
3:15 AM,44.6,37.4,76,30.00,10.0,South,15.0,-,N/A,,Mostly Cloudy,190,2012-10-28 10:15:00
3:35 AM,44.6,37.4,76,29.99,10.0,South,15.0,-,N/A,,Mostly Cloudy,180,2012-10-28 10:35:00
3:55 AM,44.6,37.4,76,30.00,10.0,South,16.1,19.6,N/A,,Overcast,190,2012-10-28 10:55:00
4:15 AM,44.6,37.4,76,29.99,10.0,South,18.4,21.9,N/A,,Overcast,190,2012-10-28 11:15:00
4:35 AM,44.6,35.6,71,29.99,10.0,South,21.9,27.6,N/A,,Mostly Cloudy,190,2012-10-28 11:35:00
4:55 AM,44.6,35.6,71,29.99,10.0,South,18.4,24.2,N/A,,Partly Cloudy,180,2012-10-28 11:55:00
5:15 AM,44.6,37.4,76,29.99,10.0,South,20.7,26.5,N/A,,Partly Cloudy,190,2012-10-28 12:15:00
5:35 AM,46.4,37.4,71,29.99,10.0,South,20.7,27.6,N/A,,Scattered Clouds,180,2012-10-28 12:35:00
6:15 AM,46.4,37.4,71,29.99,10.0,SSW,19.6,-,N/A,,Overcast,200,2012-10-28 13:15:00
6:35 AM,46.4,37.4,71,29.99,10.0,South,24.2,28.8,N/A,,Overcast,190,2012-10-28 13:35:00
6:55 AM,46.4,37.4,71,29.99,10.0,South,20.7,26.5,N/A,,Overcast,180,2012-10-28 13:55:00
7:15 AM,46.4,37.4,71,29.99,10.0,South,20.7,29.9,N/A,,Overcast,180,2012-10-28 14:15:00
7:35 AM,46.4,37.4,71,29.99,10.0,South,23.0,28.8,N/A,,Overcast,190,2012-10-28 14:35:00
7:55 AM,46.4,35.6,66,29.99,10.0,South,24.2,32.2,N/A,,Overcast,190,2012-10-28 14:55:00
8:15 AM,46.4,37.4,71,30.00,10.0,South,26.5,31.1,N/A,,Overcast,190,2012-10-28 15:15:00
8:35 AM,46.4,37.4,71,30.00,10.0,South,20.7,32.2,N/A,,Overcast,190,2012-10-28 15:35:00
8:55 AM,46.4,37.4,71,30.00,10.0,South,21.9,31.1,N/A,,Overcast,180,2012-10-28 15:55:00
9:15 AM,46.4,37.4,71,30.00,10.0,South,20.7,26.5,N/A,,Mostly Cloudy,180,2012-10-28 16:15:00
9:35 AM,48.2,37.4,66,30.00,10.0,South,18.4,23.0,N/A,,Overcast,190,2012-10-28 16:35:00
10:15 AM,46.4,37.4,71,30.00,6.0,SSW,20.7,28.8,0.01,,Overcast,200,2012-10-28 17:15:00
10:35 AM,46.4,37.4,71,30.01,5.0,South,19.6,31.1,0.01,,Overcast,180,2012-10-28 17:35:00
10:55 AM,46.4,39.2,76,30.01,8.0,South,18.4,-,0.01,,Overcast,190,2012-10-28 17:55:00
11:15 AM,46.4,39.2,76,30.00,7.0,SSW,23.0,27.6,N/A,,Overcast,200,2012-10-28 18:15:00
11:35 AM,46.4,39.2,76,30.00,10.0,SSW,20.7,-,N/A,,Overcast,200,2012-10-28 18:35:00
11:55 AM,46.4,39.2,76,30.00,10.0,SSW,19.6,29.9,N/A,,Overcast,200,2012-10-28 18:55:00
12:15 PM,48.2,39.2,71,30.00,10.0,South,20.7,-,N/A,,Overcast,190,2012-10-28 19:15:00
12:35 PM,48.2,41.0,76,30.00,10.0,South,15.0,19.6,N/A,,Overcast,180,2012-10-28 19:35:00
12:55 PM,50.0,42.8,76,30.00,10.0,South,21.9,26.5,N/A,,Overcast,180,2012-10-28 19:55:00
1:15 PM,50.0,41.0,71,30.00,10.0,South,15.0,-,N/A,,Overcast,180,2012-10-28 20:15:00
1:35 PM,50.0,41.0,71,29.99,10.0,South,19.6,24.2,N/A,,Overcast,180,2012-10-28 20:35:00
1:55 PM,51.8,42.8,71,29.99,10.0,South,10.4,-,N/A,,Overcast,180,2012-10-28 20:55:00
2:15 PM,51.8,42.8,71,29.99,10.0,South,13.8,-,N/A,,Overcast,180,2012-10-28 21:15:00
2:35 PM,51.8,42.8,71,29.99,10.0,South,12.7,-,N/A,,Overcast,190,2012-10-28 21:35:00
2:55 PM,51.8,42.8,71,29.99,10.0,South,17.3,20.7,N/A,,Overcast,190,2012-10-28 21:55:00
3:15 PM,50.0,41.0,71,29.98,8.0,South,13.8,20.7,N/A,,Overcast,180,2012-10-28 22:15:00
3:35 PM,50.0,42.8,76,29.98,10.0,South,18.4,23.0,N/A,,Overcast,190,2012-10-28 22:35:00
3:55 PM,50.0,42.8,76,29.98,10.0,South,15.0,-,N/A,,Overcast,180,2012-10-28 22:55:00
4:15 PM,50.0,42.8,76,29.98,10.0,South,13.8,19.6,N/A,,Overcast,180,2012-10-28 23:15:00
4:35 PM,50.0,42.8,76,29.98,10.0,South,15.0,19.6,N/A,,Overcast,190,2012-10-28 23:35:00
4:55 PM,50.0,42.8,76,29.98,9.0,South,13.8,21.9,N/A,,Overcast,190,2012-10-28 23:55:00
5:15 PM,48.2,42.8,82,29.98,9.0,South,15.0,19.6,N/A,,Overcast,180,2012-10-29 00:15:00
5:35 PM,48.2,41.0,76,29.98,9.0,South,15.0,21.9,N/A,,Overcast,180,2012-10-29 00:35:00
5:55 PM,48.2,42.8,82,29.98,10.0,South,16.1,-,N/A,,Overcast,180,2012-10-29 00:55:00
6:15 PM,48.2,42.8,82,29.98,10.0,South,15.0,20.7,N/A,,Overcast,190,2012-10-29 01:15:00
6:35 PM,48.2,42.8,82,29.98,10.0,South,13.8,21.9,N/A,,Overcast,180,2012-10-29 01:35:00
6:55 PM,50.0,42.8,76,29.98,10.0,South,13.8,-,N/A,,Overcast,190,2012-10-29 01:55:00
7:15 PM,50.0,42.8,76,29.97,10.0,SSW,16.1,-,N/A,,Overcast,200,2012-10-29 02:15:00
7:35 PM,50.0,42.8,76,29.98,10.0,SSW,19.6,24.2,N/A,,Overcast,200,2012-10-29 02:35:00
8:15 PM,50.0,42.8,76,29.98,10.0,South,15.0,-,0.02,,Overcast,180,2012-10-29 03:15:00
8:35 PM,50.0,42.8,76,29.98,10.0,South,12.7,-,0.04,,Overcast,170,2012-10-29 03:35:00
8:55 PM,48.2,42.8,82,29.97,9.0,South,5.8,-,0.04,,Overcast,170,2012-10-29 03:55:00
9:15 PM,48.2,42.8,82,29.98,10.0,South,6.9,-,N/A,,Overcast,190,2012-10-29 04:15:00
9:35 PM,50.0,42.8,76,29.97,10.0,South,8.1,-,0.03,,Overcast,180,2012-10-29 04:35:00
9:55 PM,50.0,44.6,82,29.97,10.0,South,11.5,17.3,0.03,,Overcast,190,2012-10-29 04:55:00
10:15 PM,50.0,50.0,100,29.96,10.0,SSW,13.8,21.9,N/A,,Overcast,200,2012-10-29 05:15:00
10:35 PM,51.8,51.8,100,29.96,10.0,SSW,21.9,26.5,0.01,,Overcast,200,2012-10-29 05:35:00
10:55 PM,51.8,51.8,100,29.96,10.0,South,20.7,27.6,0.01,,Overcast,190,2012-10-29 05:55:00
11:15 PM,51.8,50.0,94,29.96,10.0,SSW,19.6,-,0.01,,Overcast,200,2012-10-29 06:15:00
11:35 PM,51.8,50.0,94,29.96,10.0,South,18.4,-,0.01,,Overcast,180,2012-10-29 06:35:00
11:55 PM,51.8,50.0,94,29.96,10.0,South,10.4,-,0.03,,Overcast,180,2012-10-29 06:55:00